TimeEST,TemperatureF,Dew PointF,Humidity,Sea Level PressureIn,VisibilityMPH,Wind Direction,Wind SpeedMPH,Gust SpeedMPH,PrecipitationIn,Events,Conditions,WindDirDegrees,DateUTC
12:53 AM,39.9,17.1,40,29.96,10.0,NNW,6.9,-,N/A,,Clear,330,2012-11-08 05:53:00
2:53 AM,39.0,15.1,38,29.96,10.0,NW,5.8,-,N/A,,Clear,310,2012-11-08 07:53:00
3:53 AM,37.9,15.1,39,29.97,10.0,NW,9.2,-,N/A,,Clear,320,2012-11-08 08:53:00
4:53 AM,37.9,14.0,38,29.97,10.0,NNW,11.5,-,N/A,,Clear,330,2012-11-08 09:53:00
5:53 AM,37.0,12.9,37,29.97,10.0,WNW,6.9,-,N/A,,Clear,300,2012-11-08 10:53:00
6:53 AM,37.9,12.9,36,29.99,10.0,NW,5.8,-,N/A,,Clear,320,2012-11-08 11:53:00
7:53 AM,37.9,10.9,33,30.01,10.0,Calm,Calm,-,N/A,,Clear,0,2012-11-08 12:53:00
8:53 AM,42.1,12.0,29,30.03,10.0,NNW,5.8,-,N/A,,Clear,340,2012-11-08 13:53:00
9:53 AM,45.0,12.0,26,30.03,10.0,NW,15.0,27.6,N/A,,Clear,320,2012-11-08 14:53:00
10:53 AM,46.9,12.0,24,30.03,10.0,NNW,21.9,27.6,N/A,,Clear,330,2012-11-08 15:53:00
12:53 PM,52.0,8.1,17,29.99,10.0,NW,13.8,23.0,N/A,,Clear,310,2012-11-08 17:53:00
1:53 PM,54.0,9.0,17,29.97,10.0,NW,12.7,23.0,N/A,,Clear,320,2012-11-08 18:53:00
2:53 PM,53.1,9.0,17,29.98,10.0,NNW,17.3,24.2,N/A,,Clear,330,2012-11-08 19:53:00
3:53 PM,51.1,12.9,22,29.99,10.0,NW,12.7,17.3,N/A,,Clear,310,2012-11-08 20:53:00
4:53 PM,48.0,17.1,29,30.01,10.0,NW,8.1,-,N/A,,Clear,310,2012-11-08 21:53:00
5:53 PM,46.9,23.0,39,30.04,10.0,NW,10.4,-,N/A,,Clear,310,2012-11-08 22:53:00
6:53 PM,46.0,24.1,42,30.06,10.0,NW,21.9,27.6,N/A,,Clear,320,2012-11-08 23:53:00
7:53 PM,44.1,25.0,47,30.08,10.0,NW,6.9,-,N/A,,Clear,320,2012-11-09 00:53:00
8:53 PM,44.1,27.0,51,30.09,10.0,North,8.1,-,N/A,,Clear,350,2012-11-09 01:53:00
9:53 PM,43.0,28.0,56,30.10,10.0,NW,6.9,-,N/A,,Clear,310,2012-11-09 02:53:00
10:53 PM,43.0,28.0,56,30.10,10.0,NW,13.8,-,N/A,,Clear,310,2012-11-09 03:53:00
11:53 PM,43.0,28.9,58,30.11,10.0,WNW,11.5,23.0,N/A,,Clear,300,2012-11-09 04:53:00